QPF
0.00 0.00 0.00 0.01 0.01 0.01 0.00 0.15 0.17 0.17 0.18 0.09 0.07 0.01 0.00 0.00 0.00 0.00 0.00 0.00 0.00 0.00 0.00 0.00 0.00 0.00 0.00 0.00 0.00 0.00 0.00 0.00 0.00 0.00 0.00 0.00 0.00 0.00 0.00 0.00 0.00 0.00 0.00
0.00 0.00 0.00 0.00 0.02 0.02 0.03 0.09 0.12 0.11 0.17 0.20 0.21 0.19 0.15 0.10 0.06 0.00 0.00 0.00 0.00 0.00 0.00 0.00 0.00 0.00 0.00 0.00 0.00 0.00 0.00 0.00 0.00 0.00 0.00 0.00 0.00 0.00 0.00 0.00 0.00 0.00 0.00
0.00 0.00 0.00 0.00 0.01 0.01 0.01 0.03 0.08 0.08 0.07 0.10 0.15 0.16 0.19 0.12 0.06 0.02 0.01 0.01 0.00 0.00 0.00 0.00 0.00 0.00 0.00 0.00 0.00 0.00 0.00 0.00 0.00 0.00 0.00 0.00 0.00 0.00 0.00 0.00 0.00 0.00 0.00
0.00 0.00 0.00 0.00 0.00 0.00 0.01 0.01 0.03 0.06 0.07 0.08 0.11 0.09 0.06 0.06 0.05 0.10 0.11 0.12 0.06 0.03 0.02 0.04 0.04 0.02 0.01 0.02 0.05 0.04 0.02 0.01 0.00 0.00 0.00 0.00 0.00 0.00 0.00 0.00 0.00 0.00 0.00
0.00 0.00 0.00 0.00 0.00 0.00 0.00 0.00 0.01 0.05 0.05 0.08 0.10 0.08 0.09 0.11 0.11 0.12 0.08 0.12 0.12 0.08 0.09 0.05 0.01 0.03 0.07 0.09 0.07 0.04 0.04 0.02 0.00 0.00 0.00 0.00 0.00 0.00 0.00 0.01 0.00 0.00 0.00
0.00 0.00 0.00 0.00 0.00 0.00 0.00 0.00 0.00 0.01 0.03 0.03 0.04 0.06 0.11 0.12 0.06 0.04 0.08 0.06 0.07 0.03 0.04 0.10 0.04 0.03 0.01 0.01 0.03 0.02 0.00 0.00 0.00 0.00 0.00 0.00 0.00 0.00 0.00 0.00 0.00 0.00 0.00
0.00 0.00 0.00 0.00 0.00 0.00 0.00 0.00 0.00 0.00 0.01 0.01 0.04 0.05 0.04 0.02 0.03 0.04 0.01 0.00 0.00 0.00 0.02 0.02 0.02 0.03 0.01 0.01 0.01 0.00 0.00 0.00 0.00 0.00 0.00 0.00 0.00 0.00 0.00 0.00 0.00 0.00 0.00
0.00 0.00 0.00 0.00 0.00 0.00 0.00 0.00 0.00 0.00 0.00 0.01 0.02 0.01 0.03 0.01 0.01 0.01 0.00 0.00 0.00 0.00 0.00 0.00 0.00 0.00 0.00 0.00 0.00 0.00 0.00 0.00 0.00 0.00 0.00 0.00 0.00 0.00 0.00 0.00 0.00 0.00 0.00
0.00 0.00 0.00 0.00 0.00 0.00 0.00 0.00 0.00 0.00 0.00 0.00 0.00 0.00 0.01 0.01 0.00 0.00 0.00 0.00 0.00 0.00 0.00 0.00 0.00 0.00 0.00 0.00 0.00 0.00 0.00 0.00 0.00 0.00 0.00 0.00 0.00 0.00 0.00 0.00 0.00 0.00 0.00
0.00 0.00 0.00 0.00 0.00 0.00 0.00 0.00 0.00 0.00 0.00 0.00 0.00 0.00 0.00 0.00 0.00 0.00 0.00 0.00 0.00 0.00 0.00 0.00 0.00 0.00 0.00 0.00 0.00 0.00 0.00 0.00 0.00 0.00 0.00 0.00 0.00 0.00 0.00 0.00 0.00 0.00 0.00
0.00 0.00 0.00 0.00 0.00 0.00 0.00 0.00 0.00 0.00 0.00 0.00 0.00 0.00 0.00 0.00 0.00 0.00 0.00 0.00 0.00 0.00 0.00 0.00 0.00 0.00 0.00 0.00 0.00 0.00 0.00 0.00 0.00 0.00 0.00 0.00 0.00 0.00 0.00 0.00 0.00 0.00 0.00
0.00 0.00 0.00 0.00 0.00 0.00 0.00 0.00 0.00 0.00 0.00 0.00 0.00 0.00 0.00 0.00 0.00 0.00 0.00 0.00 0.00 0.00 0.00 0.00 0.00 0.00 0.00 0.00 0.00 0.00 0.00 0.00 0.00 0.00 0.00 0.00 0.00 0.00 0.00 0.00 0.00 0.00 0.00
0.00 0.00 0.00 0.00 0.00 0.00 0.00 0.00 0.00 0.00 0.00 0.00 0.00 0.00 0.00 0.00 0.00 0.00 0.00 0.00 0.00 0.00 0.00 0.00 0.00 0.00 0.00 0.00 0.00 0.00 0.00 0.00 0.00 0.00 0.00 0.00 0.00 0.00 0.00 0.00 0.00 0.00 0.00
0.00 0.00 0.00 0.00 0.00 0.00 0.00 0.00 0.00 0.00 0.00 0.00 0.00 0.00 0.00 0.00 0.00 0.00 0.00 0.00 0.00 0.00 0.00 0.00 0.00 0.00 0.00 0.00 0.00 0.00 0.00 0.00 0.00 0.00 0.00 0.00 0.00 0.00 0.00 0.00 0.00 0.00 0.00
0.00 0.00 0.00 0.00 0.00 0.00 0.00 0.00 0.00 0.00 0.00 0.00 0.00 0.00 0.00 0.00 0.00 0.00 0.00 0.00 0.00 0.00 0.00 0.00 0.00 0.00 0.00 0.00 0.00 0.00 0.00 0.00 0.00 0.00 0.00 0.00 0.00 0.00 0.00 0.00 0.00 0.00 0.00
0.00 0.00 0.00 0.00 0.00 0.00 0.00 0.00 0.00 0.00 0.00 0.00 0.00 0.00 0.00 0.00 0.00 0.00 0.00 0.00 0.00 0.00 0.00 0.00 0.00 0.00 0.00 0.00 0.00 0.00 0.00 0.00 0.00 0.00 0.00 0.00 0.00 0.00 0.00 0.00 0.00 0.00 0.00
0.00 0.00 0.00 0.00 0.00 0.00 0.00 0.00 0.00 0.00 0.00 0.00 0.00 0.00 0.00 0.00 0.00 0.00 0.00 0.00 0.00 0.00 0.00 0.00 0.00 0.00 0.00 0.00 0.00 0.00 0.00 0.00 0.00 0.00 0.00 0.00 0.00 0.00 0.00 0.00 0.00 0.00 0.00
0.00 0.00 0.00 0.00 0.00 0.00 0.00 0.00 0.00 0.00 0.00 0.00 0.00 0.00 0.00 0.00 0.00 0.00 0.00 0.00 0.00 0.00 0.00 0.00 0.00 0.00 0.00 0.00 0.00 0.00 0.00 0.00 0.00 0.00 0.00 0.00 0.00 0.00 0.00 0.00 0.00 0.00 0.00
0.00 0.00 0.00 0.00 0.00 0.00 0.00 0.00 0.00 0.00 0.00 0.00 0.00 0.00 0.00 0.00 0.00 0.00 0.00 0.00 0.00 0.00 0.00 0.00 0.00 0.00 0.00 0.00 0.00 0.00 0.00 0.00 0.00 0.00 0.00 0.00 0.00 0.00 0.00 0.00 0.00 0.00 0.00
0.00 0.00 0.00 0.00 0.00 0.00 0.00 0.00 0.00 0.00 0.00 0.00 0.00 0.00 0.00 0.00 0.00 0.00 0.00 0.00 0.00 0.00 0.00 0.00 0.00 0.00 0.00 0.00 0.00 0.00 0.00 0.00 0.00 0.00 0.00 0.00 0.00 0.00 0.00 0.00 0.00 0.00 0.00
0.00 0.00 0.00 0.00 0.00 0.00 0.00 0.00 0.00 0.00 0.00 0.00 0.00 0.00 0.00 0.00 0.00 0.00 0.00 0.00 0.00 0.00 0.00 0.00 0.00 0.00 0.00 0.00 0.00 0.00 0.00 0.00 0.00 0.00 0.00 0.00 0.00 0.00 0.00 0.00 0.00 0.00 0.00
0.00 0.00 0.00 0.00 0.00 0.00 0.00 0.00 0.00 0.00 0.00 0.00 0.00 0.00 0.00 0.00 0.00 0.00 0.00 0.00 0.00 0.00 0.00 0.00 0.00 0.00 0.00 0.00 0.00 0.00 0.00 0.00 0.00 0.00 0.00 0.00 0.00 0.00 0.00 0.00 0.00 0.00 0.00
0.00 0.00 0.00 0.00 0.00 0.00 0.00 0.00 0.00 0.00 0.00 0.00 0.00 0.00 0.00 0.00 0.00 0.00 0.00 0.00 0.00 0.00 0.00 0.00 0.00 0.00 0.00 0.00 0.00 0.00 0.00 0.00 0.00 0.00 0.00 0.00 0.00 0.00 0.00 0.00 0.00 0.00 0.00
0.00 0.00 0.00 0.00 0.00 0.00 0.00 0.00 0.00 0.00 0.00 0.00 0.00 0.00 0.00 0.00 0.00 0.00 0.00 0.00 0.00 0.00 0.00 0.00 0.00 0.00 0.00 0.00 0.00 0.00 0.00 0.00 0.00 0.00 0.00 0.00 0.00 0.00 0.00 0.00 0.00 0.00 0.00
0.00 0.00 0.00 0.00 0.00 0.00 0.00 0.00 0.00 0.00 0.00 0.00 0.00 0.00 0.00 0.00 0.00 0.00 0.00 0.00 0.00 0.00 0.00 0.00 0.00 0.00 0.00 0.00 0.00 0.00 0.00 0.00 0.00 0.00 0.00 0.00 0.00 0.00 0.00 0.00 0.00 0.00 0.00
0.00 0.00 0.00 0.00 0.00 0.00 0.00 0.00 0.00 0.00 0.00 0.00 0.00 0.00 0.00 0.00 0.00 0.00 0.00 0.00 0.00 0.00 0.00 0.00 0.00 0.00 0.00 0.00 0.00 0.00 0.00 0.00 0.00 0.00 0.00 0.00 0.00 0.00 0.00 0.00 0.00 0.00 0.00
MSLP
1013.03 1013.58 1013.52 1013.77 1013.66 1013.92 1014.24 1014.66 1015.14 1015.62 1016.04 1016.67 1017.14 1017.61 1017.70 1018.09 1018.43 1018.55 1018.94 1019.31 1019.71 1020.22 1020.66 1020.90 1021.27 1021.70 1021.96 1022.11 1022.53 1022.94 1023.30 1023.61 1023.85 1023.88 1023.53 1023.31 1023.23 1023.31 1023.29 1023.50 1023.62 1023.84 1023.99
1013.47 1013.56 1013.36 1013.86 1013.56 1013.91 1014.18 1014.35 1014.73 1015.09 1015.67 1016.66 1017.14 1017.36 1017.46 1017.79 1018.06 1018.17 1018.51 1018.97 1019.24 1019.64 1020.07 1020.35 1020.67 1021.09 1021.52 1021.90 1022.31 1022.68 1023.03 1023.28 1023.49 1023.29 1023.67 1023.24 1023.04 1022.90 1022.96 1023.14 1023.29 1023.23 1023.54
1013.37 1013.24 1013.39 1013.48 1013.34 1013.58 1013.93 1014.36 1014.68 1015.24 1015.77 1016.03 1016.77 1017.53 1017.62 1017.85 1017.97 1018.10 1018.23 1018.38 1018.72 1019.06 1019.33 1019.70 1020.03 1020.51 1020.94 1021.36 1021.71 1022.10 1022.45 1022.71 1023.12 1023.13 1023.08 1023.49 1023.20 1023.12 1022.85 1022.88 1022.93 1023.05 1023.43
1013.07 1013.70 1014.16 1013.86 1013.18 1013.22 1013.66 1014.35 1014.50 1014.84 1015.38 1015.88 1016.27 1016.70 1017.18 1017.21 1017.02 1017.17 1017.78 1017.99 1018.44 1018.79 1019.17 1019.43 1019.73 1019.90 1020.34 1020.78 1021.27 1021.55 1021.88 1022.22 1022.29 1022.98 1022.90 1022.86 1023.03 1023.25 1023.27 1022.98 1023.03 1023.23 1023.44
1013.09 1013.33 1013.67 1013.71 1013.84 1013.79 1013.82 1014.07 1014.34 1014.69 1014.85 1015.57 1015.97 1016.24 1016.79 1016.74 1016.90 1017.22 1017.32 1017.80 1017.98 1018.49 1018.66 1018.69 1019.32 1019.56 1019.84 1020.16 1020.69 1020.82 1021.29 1021.56 1021.59 1021.66 1022.14 1022.58 1022.98 1023.21 1023.48 1023.06 1023.08 1023.29 1023.53
1012.42 1012.63 1012.91 1013.39 1013.81 1013.88 1013.98 1014.15 1014.24 1014.25 1014.55 1015.10 1015.46 1015.73 1016.19 1016.82 1016.94 1017.08 1016.89 1017.54 1017.80 1018.01 1018.12 1018.47 1018.87 1019.01 1019.17 1019.43 1019.67 1020.14 1020.50 1020.75 1020.87 1021.04 1021.27 1021.56 1022.08 1022.59 1023.06 1023.23 1023.26 1023.21 1023.53
1012.44 1012.38 1012.66 1013.27 1013.49 1013.79 1014.24 1014.18 1014.34 1014.53 1014.75 1014.92 1015.30 1015.68 1015.90 1016.25 1016.48 1016.85 1016.89 1017.28 1017.70 1017.89 1017.98 1018.12 1018.42 1018.46 1018.53 1018.86 1019.19 1019.60 1019.99 1020.15 1020.39 1020.53 1020.72 1021.08 1021.36 1021.78 1022.29 1022.70 1022.97 1023.31 1023.62
1012.18 1012.55 1012.79 1013.22 1013.60 1013.87 1014.30 1014.44 1014.63 1014.90 1015.17 1015.34 1015.47 1015.73 1016.02 1016.39 1016.50 1016.87 1017.16 1017.53 1017.69 1017.92 1017.91 1018.04 1018.06 1018.01 1018.12 1018.27 1018.54 1018.95 1019.33 1019.62 1019.95 1020.21 1020.52 1020.76 1021.12 1021.56 1021.80 1022.11 1022.56 1023.40 1023.71
1012.56 1012.59 1013.02 1013.58 1013.90 1014.45 1014.71 1014.96 1015.34 1015.55 1015.72 1015.99 1016.14 1016.41 1016.59 1016.78 1017.02 1017.37 1017.60 1017.80 1018.01 1018.06 1018.06 1018.02 1017.96 1017.90 1017.91 1017.91 1018.04 1018.36 1018.73 1019.13 1019.50 1019.85 1020.27 1020.74 1021.31 1021.63 1021.89 1022.11 1022.26 1022.48 1023.26
1012.59 1012.94 1013.36 1013.92 1014.43 1014.90 1015.36 1015.63 1015.91 1016.20 1016.48 1016.69 1016.84 1017.01 1017.24 1017.22 1017.53 1017.52 1017.75 1017.89 1017.97 1018.04 1018.08 1018.16 1018.17 1018.04 1017.98 1017.85 1018.04 1018.24 1018.52 1018.94 1019.57 1020.07 1020.54 1020.99 1021.66 1021.73 1022.02 1022.42 1022.59 1022.50 1022.86
1013.27 1013.36 1013.85 1014.46 1014.82 1015.40 1015.92 1016.15 1016.47 1016.65 1017.02 1017.25 1017.52 1017.64 1017.77 1017.86 1017.89 1017.85 1017.98 1018.16 1018.24 1018.31 1018.44 1018.44 1018.51 1018.58 1018.40 1018.34 1018.39 1018.70 1018.93 1019.43 1019.81 1020.57 1021.02 1021.44 1021.81 1021.81 1022.07 1022.65 1022.71 1022.94 1023.19
1014.10 1014.31 1014.65 1015.08 1015.50 1015.99 1016.35 1016.68 1016.88 1017.10 1017.28 1017.44 1017.58 1017.77 1017.94 1018.05 1018.06 1018.17 1018.26 1018.44 1018.57 1018.65 1018.87 1018.85 1018.86 1019.12 1018.82 1018.87 1019.05 1019.36 1019.60 1019.96 1020.43 1020.83 1021.48 1021.95 1022.18 1022.21 1022.44 1022.87 1023.12 1023.27 1023.51
1014.67 1015.02 1015.35 1015.68 1016.02 1016.31 1016.76 1017.15 1017.44 1017.65 1017.86 1017.91 1017.96 1018.19 1018.41 1018.51 1018.67 1018.80 1018.91 1018.96 1019.11 1019.12 1019.28 1019.26 1019.26 1019.56 1019.70 1019.47 1019.70 1019.81 1020.11 1020.32 1020.87 1021.35 1021.62 1022.22 1022.27 1022.54 1022.93 1023.29 1023.53 1023.62 1023.68
1014.67 1015.12 1015.65 1016.07 1016.39 1016.61 1016.98 1017.44 1017.78 1018.02 1018.30 1018.49 1018.61 1018.61 1018.79 1018.93 1019.14 1019.33 1019.49 1019.54 1019.59 1019.41 1019.30 1019.51 1019.59 1019.86 1020.31 1020.00 1020.28 1020.40 1020.75 1020.99 1021.47 1021.79 1022.03 1022.47 1022.50 1022.83 1023.13 1023.49 1023.88 1023.84 1023.85
1014.82 1015.14 1015.50 1016.05 1016.50 1016.75 1017.09 1017.44 1017.79 1018.09 1018.38 1018.64 1018.64 1018.96 1019.07 1019.30 1019.45 1019.72 1019.73 1019.87 1020.11 1019.86 1019.99 1019.69 1019.95 1020.30 1020.39 1020.63 1020.49 1020.82 1021.19 1021.46 1021.90 1022.35 1022.54 1022.76 1023.14 1023.21 1023.15 1023.51 1024.00 1024.12 1024.18
1014.65 1015.06 1015.48 1016.03 1016.45 1016.80 1017.02 1017.38 1017.76 1018.05 1018.47 1018.76 1018.66 1018.88 1019.22 1019.52 1019.71 1019.86 1019.92 1019.99 1020.34 1020.41 1020.14 1020.18 1020.17 1020.50 1020.79 1020.88 1020.86 1021.08 1021.55 1022.02 1022.39 1022.91 1023.08 1022.98 1023.03 1023.30 1023.61 1023.86 1024.22 1024.38 1024.54
1014.31 1014.66 1014.98 1015.39 1015.80 1016.30 1016.77 1017.18 1017.64 1018.05 1018.40 1018.75 1018.94 1019.08 1019.46 1019.64 1019.87 1019.90 1019.96 1020.34 1020.41 1020.59 1020.49 1020.46 1020.63 1020.78 1020.92 1021.19 1021.35 1021.61 1021.91 1022.38 1022.91 1023.35 1023.35 1023.58 1023.79 1024.06 1024.10 1024.29 1024.57 1024.76 1024.98
1013.99 1014.22 1014.61 1015.04 1015.48 1016.12 1016.74 1017.07 1017.50 1017.99 1018.28 1018.69 1019.06 1019.28 1019.58 1019.74 1019.90 1019.97 1020.14 1020.40 1020.58 1020.78 1020.68 1020.75 1021.07 1021.24 1021.18 1021.41 1021.74 1022.01 1022.43 1022.80 1023.42 1023.62 1023.73 1023.98 1024.28 1024.75 1024.82 1025.19 1025.46 1025.74 1025.76
1013.58 1013.97 1014.21 1014.43 1014.99 1015.53 1016.09 1016.71 1017.41 1017.84 1018.19 1018.40 1018.74 1018.98 1019.32 1019.64 1020.01 1020.22 1020.35 1020.70 1020.87 1021.01 1021.09 1021.32 1021.44 1021.50 1021.68 1021.80 1022.22 1022.61 1022.85 1023.46 1023.86 1024.05 1024.36 1024.44 1024.66 1024.76 1025.19 1025.49 1025.82 1025.88 1026.10
1013.87 1014.21 1014.22 1014.36 1014.62 1015.08 1015.73 1016.48 1017.15 1017.62 1017.92 1018.20 1018.57 1018.93 1019.30 1019.63 1019.94 1020.44 1020.62 1020.82 1021.13 1021.34 1021.56 1021.70 1021.66 1021.81 1021.91 1022.17 1022.78 1023.08 1023.21 1023.54 1023.94 1024.47 1024.61 1024.76 1024.67 1024.91 1025.40 1025.79 1025.80 1025.92 1026.15
1014.02 1014.20 1014.25 1014.39 1014.61 1015.08 1015.57 1016.24 1016.85 1017.26 1017.52 1017.96 1018.43 1018.81 1019.27 1019.62 1019.97 1020.42 1020.78 1021.00 1021.30 1021.53 1021.72 1021.90 1022.09 1022.24 1022.42 1022.62 1022.84 1023.01 1023.22 1023.57 1024.01 1024.49 1024.70 1024.76 1024.81 1025.01 1025.31 1025.83 1025.92 1025.96 1026.18
1014.06 1014.22 1014.50 1014.58 1014.94 1015.23 1015.59 1016.16 1016.66 1016.98 1017.38 1017.82 1018.30 1018.73 1019.18 1019.49 1019.94 1020.38 1020.70 1021.04 1021.28 1021.59 1021.94 1022.18 1022.50 1022.68 1022.63 1022.53 1022.67 1022.87 1023.32 1023.66 1024.02 1024.43 1024.76 1025.01 1025.01 1025.17 1025.46 1025.83 1025.74 1025.58 1026.13
1014.34 1014.49 1014.71 1014.94 1015.15 1015.49 1015.78 1016.28 1016.66 1017.02 1017.37 1017.79 1018.17 1018.60 1019.02 1019.42 1019.77 1020.21 1020.57 1020.94 1021.21 1021.51 1021.90 1022.09 1022.39 1022.68 1022.74 1022.61 1022.59 1022.86 1023.27 1023.72 1024.11 1024.42 1024.73 1025.05 1025.05 1025.23 1025.60 1025.62 1025.55 1025.73 1026.17
1014.46 1014.56 1014.78 1015.03 1015.31 1015.63 1015.94 1016.24 1016.54 1016.98 1017.36 1017.72 1018.15 1018.54 1018.83 1019.14 1019.50 1019.87 1020.32 1020.68 1020.95 1021.29 1021.58 1021.92 1022.12 1022.56 1022.76 1022.82 1022.82 1022.95 1023.22 1023.65 1024.14 1024.34 1024.78 1025.10 1025.31 1025.52 1025.66 1025.81 1025.92 1026.06 1026.16
1014.54 1014.73 1014.89 1015.09 1015.34 1015.59 1015.91 1016.16 1016.41 1016.77 1017.20 1017.58 1017.97 1018.30 1018.51 1018.78 1019.20 1019.55 1019.89 1020.23 1020.53 1020.74 1021.05 1021.42 1021.76 1022.18 1022.43 1022.52 1022.74 1022.97 1023.32 1023.69 1024.05 1024.62 1024.99 1025.18 1025.34 1025.42 1025.60 1025.84 1025.96 1026.08 1026.14
1014.67 1014.90 1015.05 1015.13 1015.22 1015.48 1015.73 1016.01 1016.32 1016.59 1016.94 1017.34 1017.65 1017.92 1018.20 1018.53 1018.99 1019.37 1019.80 1020.03 1020.26 1020.56 1020.82 1021.12 1021.36 1021.74 1021.90 1022.16 1022.36 1022.64 1022.96 1023.36 1023.67 1024.36 1024.64 1024.82 1025.03 1025.22 1025.36 1025.50 1025.62 1025.75 1025.77
Thickness
5633 5637 5645 5653 5662 5668 5673 5677 5677 5678 5676 5674 5672 5671 5677 5678 5679 5679 5677 5676 5675 5674 5672 5671 5669 5667 5666 5666 5662 5659 5655 5652 5650 5649 5650 5651 5650 5647 5644 5640 5636 5631 5627
5621 5633 5642 5644 5656 5660 5666 5670 5671 5673 5672 5668 5664 5666 5670 5670 5671 5673 5673 5673 5673 5671 5668 5667 5667 5665 5663 5660 5657 5654 5651 5648 5646 5647 5641 5644 5646 5645 5642 5637 5632 5629 5624
5617 5629 5633 5641 5649 5654 5659 5664 5664 5664 5664 5665 5663 5659 5660 5661 5664 5667 5669 5670 5668 5668 5667 5666 5665 5663 5659 5656 5655 5652 5648 5645 5641 5641 5642 5633 5637 5636 5637 5633 5629 5624 5617
5612 5613 5619 5629 5643 5650 5652 5653 5658 5663 5663 5661 5661 5661 5658 5658 5662 5666 5662 5664 5663 5662 5662 5661 5660 5658 5656 5655 5651 5648 5646 5642 5641 5635 5634 5634 5632 5626 5625 5628 5622 5616 5611
5607 5613 5617 5622 5629 5635 5641 5646 5652 5654 5657 5653 5652 5654 5654 5658 5660 5661 5661 5658 5659 5656 5658 5659 5655 5653 5652 5651 5647 5647 5643 5641 5641 5639 5633 5629 5623 5619 5614 5617 5618 5608 5603
5611 5615 5615 5621 5624 5627 5633 5636 5643 5648 5649 5649 5648 5650 5648 5646 5647 5650 5654 5652 5652 5652 5653 5652 5649 5650 5651 5650 5648 5644 5643 5640 5639 5637 5634 5629 5622 5617 5610 5606 5606 5607 5597
5607 5616 5616 5618 5621 5624 5624 5630 5636 5640 5642 5644 5643 5643 5643 5643 5644 5643 5643 5644 5645 5645 5646 5646 5646 5647 5647 5645 5643 5641 5638 5637 5635 5633 5631 5626 5621 5616 5609 5603 5601 5594 5589
5605 5608 5611 5613 5615 5617 5618 5622 5626 5628 5631 5634 5636 5637 5637 5636 5638 5636 5636 5635 5637 5636 5638 5639 5641 5642 5642 5642 5640 5639 5636 5634 5630 5627 5624 5620 5616 5610 5605 5600 5594 5583 5580
5595 5602 5605 5605 5608 5607 5610 5613 5613 5614 5616 5618 5621 5622 5623 5624 5624 5623 5624 5626 5625 5627 5629 5631 5633 5634 5635 5636 5636 5636 5633 5630 5626 5622 5617 5612 5605 5600 5595 5591 5588 5586 5579
5591 5594 5596 5595 5595 5597 5597 5599 5601 5602 5603 5604 5606 5607 5608 5611 5611 5614 5614 5615 5617 5618 5620 5622 5623 5625 5626 5628 5628 5627 5625 5621 5614 5609 5605 5600 5592 5590 5585 5579 5575 5574 5573
5579 5582 5584 5585 5586 5585 5585 5586 5586 5589 5589 5590 5591 5593 5594 5596 5598 5601 5602 5603 5605 5607 5608 5610 5611 5612 5614 5615 5615 5612 5610 5606 5603 5595 5590 5586 5581 5580 5576 5568 5564 5561 5560
5566 5569 5572 5572 5573 5572 5573 5573 5576 5577 5578 5580 5581 5582 5583 5584 5587 5587 5588 5589 5591 5593 5593 5595 5596 5595 5599 5600 5599 5597 5596 5592 5588 5584 5577 5571 5567 5566 5562 5556 5552 5550 5547
5557 5557 5560 5562 5562 5563 5562 5562 5562 5563 5564 5565 5567 5567 5568 5570 5571 5572 5573 5574 5576 5578 5578 5581 5582 5581 5581 5585 5583 5583 5581 5580 5574 5569 5566 5559 5557 5553 5549 5543 5540 5539 5538
5554 5554 5552 5552 5552 5552 5552 5551 5549 5549 5549 5549 5549 5550 5551 5553 5554 5556 5557 5560 5561 5565 5569 5568 5568 5568 5565 5569 5567 5568 5565 5564 5559 5555 5552 5546 5546 5542 5537 5533 5529 5529 5528
5547 5549 5548 5546 5543 5543 5543 5542 5541 5539 5537 5534 5535 5534 5535 5536 5539 5541 5544 5546 5547 5552 5553 5557 5556 5554 5555 5553 5555 5553 5551 5550 5545 5541 5538 5535 5530 5529 5528 5525 5520 5519 5516
5545 5543 5541 5537 5535 5535 5535 5533 5530 5528 5524 5521 5523 5521 5521 5522 5524 5527 5532 5535 5535 5537 5542 5543 5543 5542 5541 5541 5542 5541 5538 5535 5531 5525 5524 5524 5521 5519 5516 5513 5510 5507 5503
5542 5541 5539 5537 5534 5529 5527 5524 5520 5516 5513 5510 5509 5509 5508 5510 5512 5516 5520 5522 5524 5525 5527 5529 5528 5529 5529 5527 5527 5526 5523 5521 5516 5513 5511 5510 5508 5505 5504 5500 5497 5493 5489
5540 5538 5534 5530 5526 5521 5516 5513 5509 5505 5503 5500 5499 5499 5499 5500 5502 5505 5508 5510 5512 5513 5516 5516 5514 5513 5514 5514 5512 5511 5510 5508 5503 5501 5501 5498 5495 5491 5490 5486 5481 5477 5476
5534 5531 5529 5526 5520 5516 5510 5505 5500 5497 5495 5495 5493 5493 5493 5492 5491 5494 5496 5496 5500 5501 5501 5500 5500 5500 5499 5500 5498 5497 5497 5492 5490 5489 5487 5486 5484 5482 5478 5475 5470 5468 5465
5518 5518 5519 5517 5515 5510 5504 5499 5494 5491 5489 5489 5486 5485 5484 5484 5484 5482 5483 5485 5486 5486 5487 5487 5488 5488 5488 5487 5484 5483 5484 5483 5481 5477 5476 5475 5475 5472 5468 5464 5463 5460 5456
5511 5509 5510 5510 5508 5503 5498 5493 5489 5487 5485 5483 5480 5479 5477 5476 5475 5473 5473 5474 5474 5475 5476 5476 5476 5475 5475 5474 5475 5476 5476 5475 5473 5470 5467 5465 5465 5463 5459 5455 5453 5450 5447
5506 5505 5503 5503 5499 5496 5494 5488 5483 5481 5479 5476 5474 5472 5470 5470 5468 5466 5466 5465 5465 5465 5464 5465 5464 5464 5465 5467 5468 5469 5468 5466 5465 5461 5458 5456 5456 5453 5450 5447 5445 5444 5439
5497 5497 5496 5494 5492 5489 5487 5482 5478 5475 5473 5470 5468 5466 5464 5462 5461 5460 5459 5458 5458 5458 5456 5457 5456 5456 5457 5459 5461 5461 5459 5457 5456 5454 5451 5449 5447 5445 5441 5439 5438 5435 5430
5492 5490 5489 5486 5484 5482 5479 5477 5474 5470 5468 5466 5462 5459 5458 5457 5456 5455 5453 5452 5451 5451 5451 5450 5451 5449 5450 5451 5452 5453 5452 5450 5447 5446 5443 5440 5438 5436 5433 5431 5429 5426 5423
5485 5483 5481 5481 5480 5477 5474 5472 5470 5467 5464 5461 5458 5456 5455 5455 5452 5451 5449 5448 5447 5447 5446 5447 5447 5445 5445 5446 5446 5445 5444 5442 5441 5436 5434 5432 5430 5429 5426 5423 5421 5418 5415
5478 5476 5475 5476 5475 5473 5471 5468 5466 5463 5460 5458 5456 5454 5452 5451 5447 5445 5443 5444 5443 5442 5442 5442 5442 5441 5442 5442 5441 5440 5439 5437 5435 5431 5429 5427 5425 5423 5421 5419 5416 5413 5411